KF4UQS-14 Weather Reports


time (UTC)temp
C
wind
direction
speed
KPH
gust
KPH
rain 1hr
cm
rain 24hr
cm
rain mn
cm
humidity
%
barometer
mb
20260507203945 11 34 11.3 12.9 0.18 3.43 3.43 95 1009.8
20260507203443 11 41 6.4 6.4 0.13 3.40 3.40 95 1009.5
20260507202939 11 52 6.4 6.4 0.30 3.40 3.40 96 1009.5
20260507202436 11 39 4.8 4.8 0.18 3.38 3.38 97 1009.5
20260507201932 10 47 8.0 9.7 0.18 3.35 3.35 99 1010.0
20260507201427 10 8 8.0 11.3 0.30 3.35 3.35 99 1009.7
20260507200924 10 9 3.2 6.4 0.13 3.33 3.33 99 1009.6
20260507200420 10 358 11.3 14.5 0.30 3.33 3.33 99 1009.5
20260507195916 10 59 4.8 4.8 0.30 3.30 3.30 99 1009.5
20260507195414 10 32 4.8 6.4 0.13 3.28 3.28 99 1009.5
20260507194911 10 58 9.7 16.1 0.30 3.28 3.28 99 1009.3
20260507194407 10 24 3.2 4.8 0.30 3.25 3.25 99 1009.6
20260507193903 10 42 1.6 3.2 0.13 3.23 3.23 99 1009.5
20260507193401 10 46 3.2 6.4 0.18 3.20 3.20 99 1009.5
20260507192857 10 44 9.7 14.5 0.30 3.20 3.20 99 1009.6
20260507192353 11 52 3.2 3.2 0.30 3.17 3.17 99 1009.6
20260507191850 11 44 3.2 4.8 0.30 3.15 3.15 99 1009.9
20260507191346 11 49 0.0 0.0 0.30 3.12 3.12 99 1009.7
20260507190843 11 35 6.4 11.3 0.18 3.10 3.10 99 1010.0
20260507190341 11 50 9.7 14.5 0.30 3.10 3.10 99 1010.2
20260507185840 11 24 9.7 12.9 0.30 3.07 3.07 99 1010.2
20260507185337 11 332 4.8 6.4 0.36 3.05 3.05 99 1010.0
20260507184833 11 44 1.6 3.2 0.30 3.02 3.02 99 1010.5
20260507184331 11 18 8.0 9.7 0.30 3.00 3.00 99 1010.6
20260507183828 11 23 12.9 17.7 0.30 2.97 2.97 99 1010.7
20260507183325 11 26 9.7 11.3 0.30 2.95 2.95 99 1010.6
20260507182823 11 35 6.4 9.7 0.30 2.92 2.92 99 1010.2
20260507182318 11 43 4.8 4.8 0.30 2.90 2.90 99 1010.1
20260507181815 11 90 6.4 9.7 0.30 2.87 2.87 99 1009.9
20260507181311 11 46 3.2 3.2 0.30 2.84 2.84 99 1009.8
20260507180808 11 279 8.0 11.3 0.30 2.82 2.82 99 1010.0
20260507180305 11 220 4.8 6.4 0.30 2.79 2.79 99 1010.1
20260507175800 11 72 11.3 14.5 0.36 2.77 2.77 99 1010.4
20260507175257 11 39 6.4 9.7 0.30 2.74 2.74 99 1010.8
20260507174754 11 34 6.4 9.7 0.30 2.72 2.72 99 1011.4
20260507174252 11 49 3.2 4.8 0.30 2.69 2.69 99 1011.7
20260507173750 11 20 0.0 1.6 0.30 2.67 2.67 99 1011.4
20260507173247 11 24 3.2 4.8 0.30 2.64 2.64 99 1011.1
20260507172743 11 320 6.4 11.3 0.43 2.62 2.62 99 1011.2
20260507172240 11 39 3.2 4.8 0.48 2.59 2.59 99 1011.6
20260507171735 11 16 3.2 4.8 0.43 2.57 2.57 99 1011.9
20260507171233 11 51 3.2 4.8 0.30 2.51 2.51 99 1012.0
20260507170729 11 35 3.2 3.2 0.30 2.49 2.49 99 1012.0
20260507170226 11 98 3.2 4.8 0.30 2.46 2.46 99 1011.5
20260507165721 11 52 6.4 6.4 0.48 2.44 2.44 99 1011.6
20260507165218 11 56 6.4 11.3 0.48 2.41 2.41 99 1011.7
20260507164714 11 48 4.8 9.7 0.43 2.39 2.39 99 1011.6
20260507164212 11 21 11.3 12.9 0.30 2.34 2.34 99 1011.9
20260507163709 11 14 3.2 4.8 0.30 2.31 2.31 99 1011.7
20260507163206 11 34 9.7 12.9 0.30 2.29 2.29 99 1011.3
20260507162701 10 13 3.2 4.8 0.30 2.26 2.26 99 1011.1
20260507162157 10 286 6.4 9.7 0.30 2.24 2.24 99 1011.9
20260507161654 10 26 4.8 6.4 0.48 2.21 2.21 99 1012.1
20260507161145 10 50 3.2 4.8 0.43 2.18 2.18 99 1011.3
20260507160642 10 259 9.7 12.9 0.30 2.13 2.13 99 1010.9
20260507160138 11 97 11.3 14.5 0.36 2.11 2.11 99 1011.1
20260507155634 11 61 3.2 4.8 0.30 2.08 2.08 99 1011.6
20260507155131 11 46 4.8 6.4 0.30 2.06 2.06 99 1011.8
20260507154627 11 35 11.3 25.7 0.30 2.03 2.03 99 1012.0
20260507154125 11 22 6.4 9.7 0.30 2.01 2.01 99 1011.7
20260507153621 11 27 6.4 11.3 0.30 1.98 1.98 99 1011.7
20260507153118 11 40 11.3 16.1 0.43 1.96 1.96 99 1011.5
20260507152614 12 3 4.8 6.4 0.48 1.93 1.93 99 1011.7
20260507152110 12 328 3.2 6.4 0.30 1.91 1.91 99 1011.7
20260507151606 12 40 9.7 12.9 0.30 1.85 1.85 99 1011.9
20260507151103 12 47 12.9 14.5 0.30 1.83 1.83 99 1011.6
20260507150555 12 76 6.4 9.7 0.30 1.80 1.80 99 1011.7
20260507150051 12 55 4.8 9.7 0.36 1.78 1.78 99 1011.4
20260507145545 12 54 4.8 4.8 0.30 1.75 1.75 99 1011.6
20260507145044 12 60 9.7 11.3 0.30 1.73 1.73 99 1011.4
20260507144540 12 30 14.5 24.1 0.18 1.70 1.70 99 1011.3
20260507144038 13 47 6.4 12.9 0.30 1.70 1.70 99 1011.3
20260507143534 13 332 3.2 4.8 0.30 1.68 1.68 99 1011.5
20260507143032 13 46 11.3 16.1 0.30 1.65 1.65 99 1011.1
20260507142527 14 31 12.9 22.5 0.30 1.63 1.63 99 1011.2
20260507142024 14 41 12.9 14.5 0.18 1.60 1.60 99 1010.9
20260507141520 14 36 9.7 16.1 0.13 1.57 1.57 99 1010.9
20260507141017 14 19 9.7 16.1 0.43 1.57 1.57 99 1011.0
20260507140514 15 38 8.0 12.9 0.48 1.55 1.55 99 1011.1
20260507140012 15 48 3.2 3.2 0.36 1.50 1.50 99 1011.0
20260507135508 15 30 12.9 16.1 0.30 1.47 1.47 99 1011.2
20260507135006 15 105 4.8 9.7 0.30 1.45 1.45 99 1010.9
20260507134502 15 37 3.2 3.2 0.30 1.42 1.42 99 1010.8
20260507133958 15 47 3.2 4.8 0.43 1.40 1.40 99 1010.8
20260507133454 15 44 3.2 6.4 0.48 1.37 1.37 98 1010.8
20260507132953 15 34 4.8 6.4 0.48 1.32 1.32 98 1010.9
20260507132448 15 33 3.2 4.8 0.43 1.30 1.30 98 1010.9
20260507131945 15 58 3.2 6.4 0.48 1.27 1.27 98 1011.0
20260507131442 15 5 12.9 16.1 0.48 1.22 1.22 98 1010.9
20260507130939 15 355 9.7 12.9 0.61 1.19 1.19 98 1011.0
20260507130436 15 20 9.7 11.3 0.48 1.14 1.14 98 1011.3
20260507125935 15 23 8.0 9.7 0.48 1.09 1.09 98 1011.1
20260507125433 15 26 12.9 17.7 0.61 1.07 1.07 98 1011.2
20260507124930 16 26 6.4 9.7 0.43 1.02 1.02 98 1011.4
20260507124425 16 31 16.1 16.1 0.61 0.99 0.99 98 1011.3
20260507123924 16 22 16.1 17.7 0.61 0.94 0.94 98 1011.3
20260507123421 16 34 17.7 20.9 0.66 0.89 0.89 98 1010.9
20260507122918 18 22 19.3 22.5 0.66 0.84 0.84 98 1010.9
20260507122413 18 328 4.8 6.4 0.61 0.79 0.79 98 1010.8
20260507121909 18 322 3.2 3.2 0.61 0.74 0.74 98 1010.8
20260507121404 18 349 1.6 3.2 0.61 0.69 0.69 98 1011.0
20260507120901 18 336 3.2 3.2 0.43 0.64 0.64 98 1010.9
20260507120358 18 28 0.0 0.0 0.43 0.58 0.58 98 1010.8
20260507115854 18 72 0.0 0.0 0.30 0.53 0.53 98 1011.0
20260507115350 18 57 0.0 0.0 0.48 0.51 0.51 98 1010.6
20260507114846 18 58 0.0 0.0 0.48 0.48 0.48 97 1010.8
20260507114343 18 59 0.0 0.0 0.30 0.43 0.43 97 1010.8
20260507113840 18 44 0.0 0.0 0.43 0.41 0.41 97 1010.9
20260507113337 18 5 1.6 3.2 0.48 0.38 0.38 97 1010.8
20260507112835 18 340 3.2 3.2 0.30 0.36 0.36 97 1010.8
20260507112332 18 75 0.0 0.0 0.13 0.30 0.30 97 1010.5
20260507111830 18 349 3.2 3.2 0.13 0.30 0.30 97 1010.6
20260507111326 18 18 1.6 3.2 0.18 0.28 0.28 97 1010.6
20260507110822 18 296 6.4 6.4 0.48 0.28 0.28 97 1010.8
20260507110319 18 346 3.2 3.2 0.48 0.25 0.25 97 1010.6
20260507105815 18 344 3.2 4.8 0.18 0.20 0.20 97 1010.7
20260507105312 18 328 3.2 3.2 0.13 0.18 0.18 96 1010.6
20260507104809 18 60 0.0 0.0 0.13 0.18 0.18 96 1010.4
20260507104305 18 69 0.0 0.0 0.18 0.15 0.15 96 1010.4
20260507103802 18 112 0.0 0.0 0.18 0.15 0.15 96 1010.6
20260507103258 18 86 0.0 1.6 0.00 0.13 0.13 96 1010.4
20260507102754 18 94 3.2 3.2 0.13 0.13 0.13 96 1010.1
20260507102251 18 171 3.2 3.2 0.13 0.13 0.13 95 1010.1
20260507101747 18 199 3.2 3.2 0.18 0.10 0.10 95 1010.2
20260507101242 18 184 3.2 3.2 0.18 0.10 0.10 95 1010.1
20260507100740 19 223 6.4 6.4 0.00 0.08 0.08 94 1009.9
20260507100238 19 167 3.2 4.8 0.13 0.08 0.08 94 1010.2
20260507095736 19 194 3.2 3.2 0.13 0.08 0.08 93 1009.9
20260507095227 19 185 1.6 3.2 0.00 0.05 0.05 92 1010.0
20260507094724 19 182 3.2 4.8 0.30 0.05 0.05 91 1009.9
20260507094221 20 135 3.2 3.2 0.30 0.05 0.05 90 1009.8
20260507093718 20 151 3.2 3.2 0.00 0.00 0.00 89 1009.8
20260507093216 20 219 4.8 4.8 0.00 0.00 0.00 88 1010.1
20260507092713 20 190 4.8 4.8 0.00 0.00 0.00 88 1009.6
20260507092209 20 106 0.0 0.0 0.00 0.00 0.00 88 1009.7
20260507091706 20 91 0.0 1.6 0.00 0.00 0.00 88 1009.6
20260507091203 20 38 0.0 0.0 0.00 0.00 0.00 88 1009.7
20260507090658 20 130 0.0 1.6 0.00 0.00 0.00 88 1009.7
20260507090155 20 100 1.6 1.6 0.00 0.00 0.00 88 1010.0
20260507085652 20 155 0.0 1.6 0.00 0.00 0.00 87 1009.9
20260507085149 20 48 3.2 3.2 0.00 0.00 0.00 87 1010.0
20260507084645 20 164 0.0 0.0 0.00 0.00 0.00 87 1010.3
20260507084136 20 84 1.6 1.6 0.00 0.00 0.00 86 1010.2
20260507083633 20 79 1.6 1.6 0.00 0.00 0.00 86 1010.2
20260507083130 20 229 3.2 3.2 0.00 0.00 0.00 85 1010.1
20260507082626 20 38 0.0 0.0 0.00 0.00 0.00 85 1010.4
20260507082122 20 231 4.8 4.8 0.00 0.00 0.00 84 1010.3
20260507081619 20 192 8.0 11.3 0.00 0.00 0.00 84 1010.3
20260507081115 20 169 6.4 9.7 0.00 0.00 0.00 84 1010.4
20260507080612 20 207 3.2 3.2 0.00 0.00 0.00 84 1010.3
20260507080108 20 157 6.4 9.7 0.00 0.00 0.00 84 1010.5
20260507075603 20 203 6.4 9.7 0.00 0.00 0.00 84 1010.6
20260507075100 20 270 6.4 6.4 0.00 0.00 0.00 84 1010.7
20260507074557 20 221 4.8 4.8 0.00 0.00 0.00 84 1010.7
20260507074055 20 208 3.2 3.2 0.00 0.00 0.00 84 1010.7
20260507073551 20 194 6.4 6.4 0.00 0.00 0.00 85 1010.6
20260507073047 20 205 6.4 6.4 0.00 0.00 0.00 86 1010.7
20260507072545 20 196 6.4 6.4 0.00 0.00 0.00 87 1010.9
20260507072042 19 190 4.8 4.8 0.00 0.00 0.00 87 1010.9
20260507071539 19 172 3.2 4.8 0.00 0.00 0.00 87 1010.8
20260507071035 19 204 3.2 3.2 0.00 0.00 0.00 87 1010.7
20260507070533 20 75 1.6 1.6 0.00 0.00 0.00 86 1010.8
20260507070030 20 65 0.0 1.6 0.00 0.00 0.00 86 1010.6
20260507065526 20 77 1.6 1.6 0.00 0.00 0.00 85 1010.3
20260507065023 20 173 3.2 4.8 0.00 0.00 0.00 84 1010.1
20260507064521 20 159 1.6 3.2 0.00 0.00 0.00 84 1009.9
20260507064019 20 208 3.2 3.2 0.00 0.00 0.00 83 1009.9
20260507063516 20 97 1.6 1.6 0.00 0.00 0.00 83 1009.9
20260507063014 20 187 3.2 4.8 0.00 0.00 0.00 83 1009.8
20260507062510 20 197 3.2 3.2 0.00 0.00 0.00 84 1010.7
20260507062008 20 192 4.8 6.4 0.00 0.00 0.00 85 1011.4
20260507061505 20 198 4.8 4.8 0.00 0.00 0.00 84 1011.4
20260507061003 20 188 3.2 3.2 0.00 0.00 0.00 85 1011.6
20260507060500 20 226 3.2 3.2 0.00 0.00 0.00 84 1011.6
20260507055956 20 150 3.2 3.2 0.00 0.00 0.00 84 1011.5
20260507055452 20 181 3.2 3.2 0.00 0.00 0.00 83 1011.3
20260507054949 20 57 1.6 1.6 0.00 0.00 0.00 83 1011.7
20260507054444 20 185 3.2 3.2 0.00 0.00 0.00 82 1011.7
20260507053942 20 142 1.6 3.2 0.00 0.00 0.00 81 1011.6
20260507053440 20 165 1.6 3.2 0.00 0.00 0.00 79 1011.7
20260507052938 21 172 3.2 3.2 0.00 0.00 0.00 78 1011.6
20260507052435 21 136 3.2 3.2 0.00 0.00 0.00 75 1011.7
20260507051932 21 68 1.6 3.2 0.00 0.00 0.00 74 1011.5
20260507051430 21 217 4.8 6.4 0.00 0.00 0.00 72 1011.7
20260507050926 21 211 6.4 9.7 0.00 0.00 0.00 72 1011.6
20260507050418 21 187 6.4 9.7 0.00 0.00 0.00 72 1011.5
20260507045915 21 205 6.4 6.4 0.00 0.00 0.00 72 1011.3
20260507045411 21 182 4.8 4.8 0.00 0.00 0.00 71 1011.3
20260507044908 21 133 4.8 4.8 0.00 0.00 0.00 71 1011.3
20260507044404 21 200 8.0 11.3 0.00 0.00 0.00 71 1011.5
20260507043901 21 175 6.4 9.7 0.00 0.00 0.00 70 1011.6
20260507043357 21 213 4.8 6.4 0.00 0.00 0.00 70 1011.5
20260507042853 22 179 6.4 11.3 0.00 0.00 0.00 69 1011.5
20260507042350 22 215 9.7 12.9 0.00 0.00 0.00 69 1011.5
20260507041846 22 188 8.0 9.7 0.00 0.00 0.00 69 1011.5
20260507041343 22 219 9.7 11.3 0.00 0.00 0.00 68 1011.6
20260507040840 22 221 6.4 6.4 0.00 0.00 0.00 68 1011.3
20260507040336 22 184 11.3 14.5 0.00 0.00 0.00 68 1011.2
20260507035832 22 198 9.7 11.3 0.00 0.00 0.00 68 1011.1
20260507035328 22 185 6.4 11.3 0.00 0.00 0.00 68 1011.0
20260507034826 22 188 9.7 14.5 0.00 0.00 0.00 67 1011.3
20260507034322 22 203 6.4 6.4 0.00 0.00 0.00 67 1011.4
20260507033820 22 223 6.4 9.7 0.00 0.00 0.00 67 1011.3
20260507033318 22 228 6.4 9.7 0.00 0.00 0.00 67 1011.1
20260507032815 22 196 6.4 9.7 0.00 0.00 0.00 67 1011.1
20260507032311 22 187 4.8 4.8 0.00 0.00 0.00 67 1011.3
20260507031808 22 204 6.4 9.7 0.00 0.00 0.00 67 1011.4
20260507031304 22 157 3.2 4.8 0.00 0.00 0.00 67 1011.2
20260507030801 22 183 4.8 4.8 0.00 0.00 0.00 67 1011.4
20260507030259 22 220 6.4 6.4 0.00 0.00 0.00 68 1011.3
20260507025755 22 179 3.2 3.2 0.00 0.00 0.00 69 1011.3
20260507025253 22 194 6.4 6.4 0.00 0.00 0.00 69 1011.6
20260507024751 22 181 3.2 3.2 0.00 0.00 0.00 70 1011.7
20260507024248 22 192 4.8 4.8 0.00 0.00 0.00 70 1011.7
20260507023743 22 181 1.6 1.6 0.00 0.00 0.00 70 1011.7
20260507023240 22 165 1.6 1.6 0.00 0.00 0.00 70 1011.7
20260507022738 22 176 3.2 3.2 0.00 0.00 0.00 68 1011.7
20260507022233 22 221 3.2 3.2 0.00 0.00 0.00 68 1011.7
20260507021730 23 212 4.8 4.8 0.00 0.00 0.00 68 1011.7
20260507021225 23 212 3.2 4.8 0.00 0.00 0.00 68 1011.6
20260507020724 23 183 6.4 6.4 0.00 0.00 0.00 67 1011.4
20260507020220 23 194 9.7 12.9 0.00 0.00 0.00 67 1011.7
20260507015718 23 197 4.8 6.4 0.00 0.00 0.00 67 1011.9
20260507015215 23 207 6.4 6.4 0.00 0.00 0.00 67 1011.9
20260507014711 23 206 6.4 9.7 0.00 0.00 0.00 67 1011.9
20260507014208 23 184 6.4 6.4 0.00 0.00 0.00 67 1011.8
20260507013704 23 216 8.0 11.3 0.00 0.00 0.00 68 1011.6
20260507013202 23 190 9.7 12.9 0.00 0.00 0.00 67 1011.5
20260507012659 24 205 8.0 9.7 0.00 0.00 0.00 67 1011.7
20260507012154 24 229 11.3 17.7 0.00 0.00 0.00 66 1011.8
20260507011653 24 202 8.0 11.3 0.00 0.00 0.00 67 1011.7
20260507011148 24 208 6.4 6.4 0.00 0.00 0.00 68 1011.8
20260507010643 24 222 6.4 9.7 0.00 0.00 0.00 68 1011.8
20260507010139 24 190 9.7 12.9 0.00 0.00 0.00 68 1011.8
20260507005637 24 218 9.7 12.9 0.00 0.00 0.00 69 1011.8
20260507005133 24 183 4.8 6.4 0.00 0.00 0.00 70 1011.7
20260507004630 24 204 6.4 6.4 0.00 0.00 0.00 70 1011.6
20260507004128 24 194 4.8 4.8 0.00 0.00 0.00 70 1011.5
20260507003624 24 214 8.0 11.3 0.00 0.00 0.00 70 1011.5
20260507003119 24 184 8.0 9.7 0.00 0.00 0.00 70 1011.2
20260507002615 24 180 9.7 11.3 0.00 0.00 0.00 69 1011.4
20260507002111 24 217 11.3 14.5 0.00 0.00 0.00 69 1011.3
20260507001608 24 187 6.4 6.4 0.00 0.00 0.00 70 1011.2
20260507001106 24 200 6.4 6.4 0.00 0.00 0.00 69 1011.2
20260507000602 24 197 8.0 11.3 0.00 0.00 0.00 70 1010.9
20260507000057 25 198 8.0 11.3 0.00 0.00 0.00 69 1011.1
20260506235555 25 196 8.0 11.3 0.00 0.00 0.00 69 1011.3
20260506235050 25 189 8.0 9.7 0.00 0.00 0.00 68 1011.1
20260506234548 25 190 6.4 9.7 0.00 0.00 0.00 68 1010.9
20260506234045 25 206 4.8 4.8 0.00 0.00 0.00 68 1010.9
20260506233542 25 200 3.2 4.8 0.00 0.00 0.00 67 1010.5
20260506233039 25 181 4.8 4.8 0.00 0.00 0.00 67 1010.7
20260506232535 25 192 8.0 9.7 0.00 0.00 0.00 66 1010.8
20260506232030 25 182 6.4 9.7 0.00 0.00 0.00 66 1010.8
20260506231528 25 197 4.8 4.8 0.00 0.00 0.00 66 1010.7
20260506231021 25 172 4.8 4.8 0.00 0.00 0.00 65 1010.8
20260506230516 25 203 6.4 9.7 0.00 0.00 0.00 63 1010.7
20260506230014 25 202 6.4 6.4 0.00 0.00 0.00 64 1010.6
20260506225510 25 188 3.2 4.8 0.00 0.00 0.00 63 1010.4
20260506225006 25 182 4.8 4.8 0.00 0.00 0.00 62 1010.4
20260506224503 25 200 4.8 4.8 0.00 0.00 0.00 61 1010.3
20260506224000 26 198 6.4 6.4 0.00 0.00 0.00 60 1010.5
20260506223456 26 182 6.4 9.7 0.00 0.00 0.00 60 1010.6
20260506222953 26 188 6.4 9.7 0.00 0.00 0.00 59 1010.3
20260506222450 26 184 4.8 4.8 0.00 0.00 0.00 59 1010.7
20260506221946 26 181 8.0 9.7 0.00 0.00 0.00 59 1010.6
20260506221444 26 199 6.4 9.7 0.00 0.00 0.00 59 1010.7
20260506220942 26 195 9.7 11.3 0.00 0.00 0.00 59 1010.7
20260506220437 26 230 8.0 11.3 0.00 0.00 0.00 59 1010.4
20260506215933 26 201 6.4 9.7 0.00 0.00 0.00 59 1010.4
20260506215430 26 188 9.7 11.3 0.00 0.00 0.00 59 1010.8
20260506214926 26 196 11.3 12.9 0.00 0.00 0.00 58 1010.4
20260506214423 26 202 6.4 9.7 0.00 0.00 0.00 59 1010.7
20260506213920 26 207 6.4 6.4 0.00 0.00 0.00 59 1010.3
20260506213418 26 222 9.7 11.3 0.00 0.00 0.00 58 1010.3
20260506212915 26 211 4.8 4.8 0.00 0.00 0.00 59 1010.1
20260506212411 26 198 9.7 11.3 0.00 0.00 0.00 56 1010.2
20260506211906 26 188 12.9 17.7 0.00 0.00 0.00 55 1010.5
20260506211402 26 199 12.9 20.9 0.00 0.00 0.00 55 1010.5
20260506210859 26 177 14.5 17.7 0.00 0.00 0.00 55 1010.5
20260506210356 26 211 6.4 9.7 0.00 0.00 0.00 57 1010.7
20260506205854 26 232 9.7 12.9 0.00 0.00 0.00 56 1010.8
20260506205349 26 241 9.7 11.3 0.00 0.00 0.00 56 1010.8
20260506204846 26 217 14.5 17.7 0.00 0.00 0.00 55 1010.9
20260506204344 26 181 11.3 14.5 0.00 0.00 0.00 55 1011.2